Temp
8 7 7 7 7 7 9 9 9 9 9 8 8 8 9 7 7 7 8 7 6 7 7 7 7 7 7 7 7 7 7 7 7 7 7 7 7 7 7 7 6 6 6 6 6 6 6 6 6
9 9 9 8 8 9 9 8 9 8 8 6 9 9 8 8 8 9 9 8 7 7 7 7 7 7 7 7 6 6 6 6 6 6 6 6 6 6 6 6 6 6 6 6 6 6 6 6 5
9 8 8 8 9 10 9 9 9 8 6 7 9 8 9 9 9 9 9 8 8 7 7 7 7 6 6 6 6 6 6 6 5 5 5 5 5 5 5 5 5 6 6 6 6 5 5 5 5
9 8 6 6 8 10 9 8 8 8 7 8 8 8 9 9 9 9 9 8 7 7 7 7 6 6 6 6 6 6 6 6 6 5 5 5 5 5 5 5 5 5 5 5 5 5 5 5 5
9 9 9 8 8 9 9 9 8 9 8 7 9 9 9 9 8 8 8 8 7 7 7 7 7 7 7 7 7 7 7 7 6 6 6 6 6 6 6 6 6 5 5 5 4 5 5 5 5
9 9 8 10 8 8 8 8 8 8 7 8 8 9 9 8 8 8 8 8 7 7 7 7 7 7 7 7 7 7 7 7 6 6 6 6 6 6 6 6 6 6 6 5 5 5 4 4 4
9 10 10 10 9 8 9 8 8 7 8 8 9 9 9 9 8 8 8 7 7 7 7 7 7 7 7 7 7 7 7 7 6 6 6 6 6 6 6 6 5 5 5 5 5 5 5 5 4
10 10 10 9 9 8 9 8 7 7 7 7 8 8 9 9 8 8 8 7 7 7 7 7 7 7 7 7 7 6 6 6 6 6 6 5 6 5 5 5 5 5 5 5 5 5 5 5 5
10 10 9 8 8 9 9 9 7 7 7 7 8 10 9 8 8 8 8 7 7 7 7 7 7 7 7 6 6 6 6 6 6 6 5 5 5 5 5 5 5 5 5 5 5 5 5 5 5
11 10 10 9 10 10 10 8 7 7 7 7 8 9 9 8 8 8 7 7 7 7 7 7 7 6 6 6 6 6 6 6 5 5 5 5 5 5 5 5 5 5 5 5 5 5 5 5 5
11 10 10 10 9 10 9 8 8 7 7 8 8 9 9 8 8 8 8 8 7 7 7 7 7 6 6 6 6 6 6 5 5 5 5 5 5 5 5 5 5 4 4 5 5 5 5 4 4
10 10 10 10 9 9 8 7 8 7 7 7 8 8 8 8 8 8 8 8 7 7 7 6 7 6 6 6 6 5 5 5 5 5 5 5 5 5 4 4 4 4 4 4 4 4 4 4 4
11 10 10 9 9 8 7 7 8 7 7 7 7 8 7 8 8 8 8 8 8 7 7 6 6 6 6 6 6 5 5 5 5 5 5 4 4 4 4 4 4 4 4 3 3 3 3 3 3
10 10 10 10 8 8 8 8 7 7 7 7 8 8 8 8 8 8 8 8 8 8 7 7 6 6 6 6 5 5 5 5 5 4 4 4 4 4 4 4 3 3 3 3 3 3 3 2 2
10 9 9 8 9 9 8 7 7 7 7 7 7 8 8 8 8 8 8 7 7 7 7 7 7 6 6 6 5 5 5 5 4 4 4 4 4 3 3 3 3 3 2 2 2 2 1 1 1
9 9 9 9 9 9 8 8 8 7 7 8 8 8 8 8 8 8 8 8 7 7 7 7 7 6 6 5 5 5 5 4 4 4 4 4 3 3 3 3 2 2 2 1 1 1 1 0 0
9 9 10 9 9 9 9 9 9 8 8 9 8 8 8 7 7 7 7 8 8 7 7 6 6 6 6 5 5 5 4 4 4 4 4 3 3 3 2 2 2 1 1 0 0 0 0 0 -0
10 10 10 9 8 9 10 10 8 9 9 9 9 9 7 6 6 5 6 6 8 7 6 6 6 5 5 5 5 4 4 4 4 4 3 3 2 2 2 1 1 0 0 0 -0 -0 -1 -0 -0
11 9 11 11 10 9 9 10 9 9 9 9 9 9 8 7 5 5 5 6 7 7 6 6 5 5 5 5 4 4 4 4 4 3 3 2 2 1 1 0 0 -0 -0 -0 -1 -1 -1 -1 -1
11 11 11 11 11 9 10 10 10 10 10 10 10 9 9 7 6 6 6 7 6 6 6 6 5 5 4 4 4 4 3 4 3 3 2 1 1 1 0 -0 -0 -0 -1 -1 -1 -1 -1 -2 -2
11 10 10 10 10 10 11 11 10 11 10 10 10 9 8 7 6 6 6 7 6 6 6 6 6 5 4 4 3 3 3 3 3 2 1 1 1 0 0 -0 -1 -1 -1 -1 -1 -2 -2 -2 -3
10 10 10 10 10 10 10 10 11 11 12 10 9 8 7 7 7 6 6 6 6 6 6 5 6 5 4 3 3 3 3 2 3 2 1 0 0 0 -0 -1 -1 -1 -1 -2 -2 -2 -3 -3 -3
9 9 9 10 10 10 10 10 11 11 11 9 9 8 8 7 7 7 6 6 6 5 5 5 5 5 4 3 3 2 2 1 2 2 1 1 0 -0 -0 -1 -2 -2 -2 -2 -2 -3 -3 -4 -4
9 9 9 9 9 8 10 10 9 10 9 9 8 8 7 7 7 7 6 6 6 6 5 4 4 5 4 2 2 2 1 1 1 1 1 -0 -0 -1 -1 -1 -2 -2 -2 -2 -3 -3 -4 -4 -4
8 8 8 7 6 6 10 10 9 9 9 9 9 9 8 8 7 6 6 6 6 5 5 4 4 4 4 3 1 1 1 -1 -1 -0 -0 -1 -0 -1 -1 -2 -2 -3 -3 -4 -4 -4 -4 -5 -5
8 8 8 6 6 8 9 10 8 8 9 9 9 8 8 8 7 6 5 5 5 5 5 5 3 2 2 2 2 0 -1 -1 -1 -2 -1 -1 -1 -2 -2 -3 -3 -4 -4 -4 -4 -5 -5 -5 -6
8 8 8 8 8 8 9 9 7 7 7 8 8 8 7 7 7 6 5 5 5 5 4 3 2 1 0 0 1 0 -1 -1 -2 -2 -2 -2 -3 -3 -4 -4 -4 -4 -5 -5 -5 -6 -6 -7 -7
8 7 8 8 3 5 8 9 9 7 6 7 8 8 7 7 7 6 6 5 4 4 3 2 1 0 -0 -1 -1 -0 -0 -1 -2 -2 -2 -3 -3 -4 -4 -4 -4 -5 -5 -5 -6 -7 -7 -8 -9
7 7 7 7 7 4 4 8 8 7 7 7 7 8 7 7 6 6 5 5 4 3 2 1 1 0 -0 -0 -1 -1 -1 -2 -3 -3 -3 -3 -4 -4 -4 -4 -5 -5 -5 -6 -7 -7 -8 -9 -10
7 7 7 7 6 7 7 7 7 8 7 7 7 7 6 6 6 5 5 5 4 3 2 1 0 0 -0 -1 -1 -2 -3 -4 -4 -4 -4 -4 -4 -4 -4 -5 -5 -5 -6 -7 -7 -8 -9 -10 -11
Height
3187 3186 3186 3186 3190 3186 3185 3188 3187 3186 3188 3188 3188 3188 3189 3189 3190 3194 3191 3193 3195 3196 3197 3197 3197 3197 3197 3197 3196 3196 3194 3194 3193 3192 3191 3191 3191 3190 3189 3188 3188 3187 3187 3186 3185 3185 3185 3185 3186
3188 3186 3189 3183 3187 3185 3187 3187 3186 3188 3189 3188 3187 3189 3189 3189 3191 3191 3193 3195 3197 3197 3198 3198 3197 3198 3198 3198 3197 3196 3195 3194 3194 3193 3192 3192 3191 3190 3189 3189 3188 3187 3187 3186 3186 3186 3185 3186 3186
3189 3187 3188 3186 3185 3186 3187 3186 3186 3189 3189 3189 3188 3188 3189 3190 3192 3193 3195 3197 3197 3198 3198 3199 3199 3198 3198 3198 3197 3196 3195 3194 3193 3192 3191 3191 3190 3190 3189 3188 3187 3187 3186 3186 3186 3185 3185 3185 3185
3191 3190 3189 3184 3187 3185 3185 3185 3186 3189 3189 3189 3190 3190 3190 3192 3194 3195 3197 3199 3199 3200 3199 3199 3199 3198 3197 3197 3196 3195 3194 3193 3192 3190 3189 3189 3188 3187 3186 3186 3186 3186 3185 3185 3185 3184 3184 3184 3184
3189 3191 3192 3187 3190 3187 3185 3187 3188 3189 3190 3190 3190 3190 3192 3193 3195 3196 3199 3200 3200 3200 3200 3199 3198 3197 3196 3195 3195 3194 3193 3192 3190 3189 3188 3188 3186 3186 3185 3184 3184 3183 3183 3183 3183 3183 3183 3183 3183
3188 3191 3190 3187 3187 3187 3186 3188 3188 3189 3189 3190 3191 3191 3194 3194 3196 3197 3199 3201 3200 3199 3199 3198 3197 3196 3195 3195 3194 3193 3192 3191 3190 3188 3188 3187 3186 3185 3185 3184 3183 3182 3181 3180 3180 3180 3180 3180 3180
3187 3189 3188 3188 3188 3185 3186 3187 3189 3189 3189 3190 3192 3193 3194 3195 3196 3197 3199 3199 3199 3199 3199 3198 3197 3196 3195 3194 3194 3193 3191 3190 3189 3188 3187 3186 3185 3184 3183 3182 3182 3181 3180 3179 3178 3177 3176 3177 3176
3188 3188 3187 3186 3187 3185 3185 3187 3190 3190 3189 3190 3191 3192 3193 3196 3196 3197 3198 3199 3199 3198 3198 3198 3197 3195 3194 3193 3193 3192 3191 3190 3189 3188 3186 3185 3184 3183 3183 3182 3181 3180 3180 3179 3178 3178 3177 3177 3177
3189 3189 3187 3188 3188 3186 3186 3187 3189 3189 3189 3190 3189 3191 3192 3195 3196 3197 3197 3197 3198 3198 3198 3197 3196 3195 3194 3193 3192 3191 3190 3189 3188 3187 3186 3186 3185 3184 3182 3181 3180 3179 3179 3178 3178 3177 3176 3175 3174
3188 3188 3187 3187 3184 3185 3185 3186 3185 3188 3187 3188 3190 3191 3193 3194 3195 3196 3196 3197 3198 3199 3198 3197 3196 3195 3194 3192 3191 3190 3190 3188 3187 3187 3186 3185 3184 3183 3183 3182 3180 3179 3178 3177 3176 3175 3173 3172 3172
3187 3187 3187 3187 3185 3185 3185 3185 3186 3186 3187 3187 3189 3191 3192 3193 3194 3195 3195 3197 3198 3198 3198 3198 3197 3195 3193 3193 3192 3191 3189 3189 3188 3187 3186 3185 3184 3183 3182 3182 3181 3179 3179 3178 3176 3174 3173 3171 3169
3187 3185 3186 3186 3185 3185 3184 3185 3188 3188 3188 3187 3189 3192 3192 3192 3194 3193 3194 3197 3198 3197 3198 3197 3196 3195 3193 3191 3191 3191 3190 3189 3188 3187 3186 3185 3184 3184 3183 3182 3181 3180 3179 3178 3176 3175 3173 3172 3169
3186 3184 3185 3185 3185 3186 3186 3187 3190 3188 3188 3187 3189 3192 3192 3193 3193 3194 3196 3196 3198 3197 3197 3195 3194 3195 3194 3192 3191 3191 3190 3190 3189 3188 3187 3186 3185 3184 3183 3182 3181 3180 3179 3177 3176 3174 3172 3170 3167
3185 3184 3183 3184 3185 3188 3188 3188 3189 3190 3188 3188 3189 3192 3192 3192 3193 3194 3194 3195 3196 3196 3196 3196 3195 3194 3193 3192 3191 3191 3191 3190 3189 3188 3187 3186 3186 3185 3184 3182 3181 3179 3177 3175 3173 3171 3169 3166 3164
3184 3184 3183 3183 3183 3185 3187 3187 3188 3189 3188 3189 3190 3190 3190 3191 3192 3193 3193 3193 3194 3194 3194 3194 3193 3193 3193 3192 3192 3192 3191 3190 3190 3189 3188 3186 3185 3184 3183 3181 3180 3177 3175 3173 3171 3169 3166 3164 3162
3184 3185 3183 3183 3182 3183 3184 3184 3186 3186 3187 3189 3189 3189 3189 3189 3190 3190 3190 3190 3192 3192 3192 3192 3192 3192 3192 3191 3191 3191 3191 3190 3189 3188 3187 3186 3185 3184 3182 3180 3178 3176 3174 3171 3169 3167 3164 3162 3159
3183 3182 3182 3182 3182 3182 3182 3182 3183 3184 3185 3187 3188 3188 3187 3187 3186 3187 3188 3188 3190 3190 3190 3191 3190 3191 3191 3190 3190 3189 3189 3189 3188 3187 3186 3185 3183 3182 3180 3179 3177 3175 3172 3169 3166 3164 3162 3160 3157
3179 3181 3181 3181 3185 3181 3180 3180 3180 3182 3183 3184 3184 3185 3186 3185 3185 3185 3185 3185 3187 3189 3188 3189 3188 3188 3188 3188 3188 3187 3187 3187 3187 3186 3184 3183 3181 3180 3179 3176 3174 3172 3170 3167 3165 3161 3158 3156 3154
3178 3181 3177 3176 3176 3180 3178 3178 3177 3179 3180 3179 3181 3182 3182 3183 3183 3183 3184 3183 3186 3186 3186 3186 3187 3187 3187 3186 3186 3185 3186 3185 3184 3183 3183 3181 3180 3178 3176 3173 3171 3169 3166 3164 3161 3158 3156 3151 3149
3178 3177 3177 3173 3173 3177 3177 3176 3178 3174 3174 3175 3176 3177 3179 3180 3180 3181 3182 3181 3184 3184 3185 3185 3185 3185 3185 3185 3184 3183 3183 3183 3182 3180 3180 3178 3178 3176 3173 3170 3168 3166 3163 3160 3157 3153 3150 3146 3140
3175 3174 3175 3175 3176 3176 3175 3173 3174 3173 3170 3172 3174 3175 3176 3177 3177 3178 3179 3179 3181 3182 3182 3182 3182 3183 3183 3182 3181 3180 3179 3179 3179 3178 3178 3177 3175 3173 3170 3168 3165 3162 3160 3155 3151 3147 3143 3141 3137
3172 3173 3173 3174 3175 3175 3175 3171 3169 3163 3161 3166 3173 3175 3176 3177 3176 3176 3177 3177 3179 3181 3180 3180 3179 3180 3179 3179 3178 3176 3175 3175 3175 3176 3175 3174 3172 3170 3167 3165 3162 3158 3154 3151 3146 3141 3136 3132 3129
3171 3171 3172 3172 3172 3172 3173 3173 3170 3161 3162 3167 3174 3177 3178 3177 3175 3175 3175 3176 3177 3177 3178 3177 3176 3176 3176 3175 3176 3174 3172 3171 3171 3173 3173 3170 3168 3166 3163 3161 3157 3154 3150 3145 3140 3136 3130 3124 3120
3169 3171 3172 3172 3173 3172 3171 3173 3171 3167 3167 3171 3173 3174 3174 3175 3174 3173 3174 3175 3174 3175 3174 3174 3173 3173 3172 3171 3171 3171 3170 3164 3167 3167 3166 3165 3164 3161 3160 3157 3153 3147 3142 3136 3132 3127 3121 3115 3112
3167 3169 3172 3173 3173 3172 3170 3170 3169 3169 3169 3170 3172 3173 3173 3172 3171 3171 3172 3173 3172 3172 3172 3171 3170 3168 3168 3169 3167 3167 3168 3162 3161 3163 3161 3159 3156 3156 3154 3150 3144 3138 3132 3127 3121 3116 3110 3108 3102
3165 3167 3169 3172 3172 3170 3168 3168 3167 3165 3167 3169 3169 3170 3170 3170 3168 3169 3170 3170 3170 3169 3168 3167 3166 3163 3163 3164 3165 3163 3161 3162 3158 3155 3154 3152 3149 3146 3143 3140 3135 3130 3125 3119 3112 3105 3099 3094 3087
3163 3163 3166 3167 3168 3168 3168 3167 3167 3163 3163 3165 3166 3166 3167 3168 3169 3167 3166 3166 3165 3164 3163 3163 3162 3160 3160 3160 3160 3161 3158 3157 3156 3152 3151 3149 3145 3142 3138 3134 3128 3123 3116 3109 3102 3095 3089 3083 3076
3159 3162 3163 3164 3168 3169 3164 3162 3160 3159 3158 3161 3164 3164 3165 3166 3167 3168 3166 3161 3157 3158 3158 3158 3158 3157 3155 3155 3154 3152 3152 3152 3151 3150 3148 3146 3144 3139 3133 3126 3120 3114 3107 3101 3092 3085 3079 3072 3066
3157 3157 3160 3161 3162 3162 3163 3160 3159 3157 3155 3159 3159 3161 3162 3163 3164 3163 3162 3159 3155 3154 3156 3157 3155 3151 3150 3149 3148 3147 3146 3146 3145 3145 3143 3141 3137 3133 3127 3120 3114 3107 3099 3090 3083 3076 3069 3062 3054
3152 3153 3155 3156 3158 3158 3160 3159 3156 3157 3156 3156 3157 3158 3160 3160 3160 3159 3158 3152 3152 3151 3151 3150 3148 3147 3146 3146 3145 3144 3143 3142 3141 3139 3136 3134 3130 3125 3119 3112 3105 3097 3089 3080 3073 3066 3057 3049 3042
Wind_Speed
15 5 8 14 5 3 5 7 9 9 9 6 10 11 11 7 6 4 8 8 11 9 8 8 8 8 7 6 5 5 6 6 6 6 6 6 6 7 6 6 5 5 5 4 4 4 5 5 6
7 4 7 24 15 5 16 16 13 8 16 11 11 8 9 8 3 7 8 10 12 9 8 7 8 7 5 3 4 4 3 3 4 4 4 5 5 5 6 6 5 5 4 5 5 5 5 5 4
8 4 7 7 3 13 13 11 12 12 11 4 7 8 11 10 7 5 7 9 9 9 7 5 4 4 4 5 5 5 5 5 4 4 4 4 4 4 3 4 5 5 5 5 5 5 5 5 5
5 8 5 10 10 7 15 15 11 12 10 5 5 5 10 10 6 5 7 9 6 5 4 3 3 5 6 7 7 7 7 7 7 7 7 8 8 8 8 7 5 5 5 5 6 5 6 5 5
5 0 8 7 8 11 14 10 9 12 8 6 7 9 8 9 7 5 5 6 6 3 3 4 5 6 7 8 7 6 7 7 7 8 8 9 9 8 8 7 6 6 6 6 6 6 6 6 6
8 9 9 11 9 9 10 10 10 9 10 9 5 7 8 8 6 5 4 3 3 2 5 6 6 5 6 7 8 8 7 7 7 7 8 8 8 8 8 7 7 7 7 6 6 7 8 7 6
14 16 17 15 10 12 11 13 10 7 9 9 7 6 6 7 7 6 4 3 1 2 5 6 4 5 6 7 8 8 8 8 7 6 6 7 6 7 7 7 6 6 6 7 7 7 8 8 9
11 10 12 9 18 15 13 15 11 3 6 6 7 6 5 6 7 5 5 4 2 5 8 5 5 7 7 7 7 7 7 7 6 6 6 6 6 6 6 6 6 6 6 6 6 7 8 9 9
13 8 6 3 15 12 11 17 16 13 12 10 13 8 8 6 7 4 5 5 6 8 7 6 6 7 8 8 7 6 6 5 5 5 5 4 4 6 7 7 7 7 7 7 8 8 9 8 6
10 7 4 6 4 22 9 19 22 21 18 18 14 9 4 8 6 5 7 6 5 9 7 7 7 6 6 6 6 5 4 4 4 5 5 5 6 6 7 8 7 8 8 7 7 6 6 8 8
5 7 5 7 4 9 8 16 20 20 18 13 14 10 5 7 6 8 10 6 6 9 7 9 10 9 8 7 6 6 6 6 6 6 6 7 7 7 7 7 7 8 9 9 9 9 8 7 7
5 6 9 10 8 8 11 10 4 7 9 8 10 12 10 8 8 10 10 8 11 10 6 8 9 10 8 8 8 7 6 5 6 6 6 7 7 8 9 10 10 10 10 11 12 12 12 12 11
5 11 12 4 1 9 10 11 6 8 8 11 12 11 10 10 9 10 8 7 10 11 6 5 7 9 8 7 7 5 4 4 5 6 7 8 8 9 10 10 11 11 11 11 12 13 13 14 15
6 12 13 3 9 8 11 10 6 12 14 16 15 10 9 11 10 9 8 8 10 8 9 8 9 8 8 7 5 4 4 4 5 6 7 8 9 10 10 11 11 13 14 16 16 17 17 17 18
9 8 10 2 5 7 16 12 16 16 19 17 15 12 10 9 8 6 11 12 10 7 6 6 7 8 7 7 6 5 5 5 5 6 7 8 9 9 11 13 14 16 18 18 18 18 18 18 18
8 6 11 8 9 2 12 15 7 16 20 15 14 11 10 9 10 8 12 12 9 4 4 5 7 7 7 6 6 6 5 5 6 7 7 8 9 11 14 16 18 19 19 21 22 21 21 19 19
8 11 15 12 16 7 8 3 14 23 13 10 13 13 12 11 15 15 14 15 9 5 6 4 7 7 7 7 7 7 7 7 7 7 7 8 9 12 14 15 16 19 21 23 25 24 23 22 21
14 11 14 13 20 16 8 4 15 14 15 13 11 14 14 15 17 19 19 17 12 6 8 6 7 7 7 8 8 8 9 9 7 7 6 7 9 10 12 15 17 19 21 23 25 26 27 26 24
11 15 23 27 11 24 12 3 15 20 23 20 16 13 14 14 16 20 21 21 15 12 10 8 8 9 9 10 10 10 10 10 8 7 7 7 9 11 13 16 18 20 23 26 27 29 29 29 29
10 7 13 11 5 18 8 11 10 23 26 24 20 14 13 13 16 19 21 22 18 16 11 11 10 11 12 12 11 11 12 11 8 9 8 9 10 12 14 17 21 23 26 28 30 32 33 33 36
6 7 9 9 10 5 12 16 14 19 28 29 22 13 10 14 18 21 23 24 21 17 13 13 13 12 13 14 13 15 14 12 11 11 9 11 12 14 18 20 24 27 29 32 35 37 37 37 37
8 6 6 4 7 4 10 11 24 29 13 29 20 10 9 14 19 22 24 27 24 21 18 15 16 13 15 15 15 17 17 15 16 13 11 14 15 17 22 24 27 31 34 36 38 40 42 43 42
10 11 7 7 6 9 10 8 11 8 17 22 11 5 5 10 19 22 24 27 28 27 21 19 19 16 15 16 17 18 18 19 20 18 14 18 20 23 26 28 30 33 36 40 41 43 44 46 47
14 9 6 6 7 5 15 9 6 10 18 20 18 15 12 13 15 18 22 26 28 27 25 22 22 20 17 16 17 19 19 24 22 21 21 22 24 29 29 31 34 37 41 44 45 47 48 50 51
13 11 2 2 1 6 12 5 4 8 14 14 16 17 15 16 16 17 20 24 27 26 25 24 19 20 19 16 18 19 19 23 26 24 26 29 32 32 35 37 40 43 46 48 50 52 53 53 53
12 11 8 5 2 4 9 2 8 10 13 13 12 11 9 8 10 13 16 20 23 22 20 19 19 18 18 19 19 20 22 23 26 30 31 33 34 36 39 40 42 45 48 51 53 56 58 58 58
12 14 15 8 10 0 5 4 8 9 8 9 6 6 4 5 6 4 9 16 19 21 21 21 20 21 18 16 21 22 24 26 28 32 32 32 33 36 38 41 45 48 50 53 56 58 59 59 58
18 11 11 8 3 3 6 13 7 22 18 13 7 4 4 4 5 7 13 16 22 21 20 21 21 21 22 21 21 26 29 30 31 31 32 33 32 35 40 45 47 50 53 56 58 59 59 57 54
16 17 8 9 5 6 2 3 9 20 22 16 13 9 6 9 13 17 14 12 17 20 19 14 18 23 25 27 28 29 30 32 32 31 33 34 35 39 42 45 48 51 55 58 58 57 57 55 51
16 15 24 14 7 13 4 10 4 12 21 19 19 18 12 16 19 17 17 19 17 16 20 20 24 27 29 29 30 30 30 33 30 33 32 32 36 39 42 46 50 55 56 57 57 56 53 50 46
Wind_Direction
123 95 30 350 115 176 118 93 139 173 145 138 136 164 152 130 153 149 138 123 126 130 108 98 87 78 72 66 67 59 43 31 32 36 33 30 29 30 28 24 20 15 2 357 12 27 35 38 45
118 333 3 84 118 117 114 152 164 165 122 105 185 135 166 158 117 148 139 126 118 111 103 90 89 83 76 63 52 28 22 12 3 23 23 20 16 20 23 15 7 2 354 346 342 345 357 6 21
90 317 327 326 66 138 136 204 204 151 98 152 155 145 148 155 157 148 118 104 107 100 92 80 69 56 22 357 352 341 328 325 320 327 331 324 318 323 340 350 357 353 346 336 326 326 330 338 347
79 19 238 334 274 124 181 202 211 175 139 147 110 156 141 134 141 125 122 108 98 96 87 60 20 357 343 331 330 325 329 325 320 321 324 322 331 335 340 335 320 314 317 323 317 314 311 312 316
44 187 288 0 63 136 176 203 158 165 151 146 144 142 140 130 145 142 116 119 114 97 55 23 350 335 334 339 339 345 342 337 330 335 336 338 342 343 349 343 339 325 307 294 292 299 296 294 295
356 344 260 308 142 211 200 170 165 169 170 182 159 162 146 146 156 140 146 136 146 50 8 352 339 351 1 348 340 342 337 330 330 335 340 344 343 344 344 343 343 335 331 315 292 273 264 265 275
312 310 313 273 208 211 200 161 150 187 174 193 163 162 169 171 150 166 181 208 238 355 358 344 349 355 358 348 340 338 335 333 330 341 350 345 343 344 343 342 343 341 334 321 313 301 290 279 262
302 339 337 226 193 214 201 156 132 236 167 186 169 200 209 151 171 181 203 218 264 324 352 355 358 352 352 353 348 344 340 335 339 354 0 354 358 355 359 2 3 0 352 341 335 328 316 318 319
339 332 58 209 222 215 198 166 158 202 223 198 207 197 208 168 206 202 242 263 304 335 349 347 1 355 354 1 358 356 350 352 5 16 25 28 358 0 2 356 357 351 351 354 346 332 329 321 316
313 326 25 35 283 224 201 182 187 195 205 225 228 225 215 200 218 237 253 266 304 329 329 352 353 4 359 2 11 0 7 7 19 22 19 19 18 16 13 4 5 355 359 4 356 352 344 335 328
324 36 54 296 272 257 261 190 199 207 218 250 230 218 212 213 226 251 262 276 341 339 343 345 354 350 1 16 16 23 9 15 22 31 28 34 34 31 27 25 23 23 16 10 8 4 358 348 345
312 280 270 289 225 276 163 204 244 190 268 268 214 224 237 232 238 258 287 332 340 331 354 342 350 346 4 10 17 15 12 20 29 38 43 42 33 29 28 23 19 15 10 7 1 358 354 350 349
273 282 300 274 318 105 161 208 259 193 219 222 247 241 247 246 242 262 294 326 332 318 326 332 353 349 359 12 12 10 13 19 33 41 40 36 32 23 17 10 3 358 353 344 339 335 333 335 331
298 282 298 299 164 161 205 231 204 215 227 232 261 282 276 256 257 278 288 312 328 321 325 339 350 355 353 355 354 356 1 15 28 30 27 24 17 8 359 353 349 343 342 341 338 336 336 336 334
267 266 284 204 234 218 201 238 202 225 241 247 266 272 265 260 270 276 294 306 324 311 320 335 343 340 334 337 336 345 353 0 10 14 8 4 3 360 353 353 354 352 350 348 345 343 344 342 338
269 253 270 267 263 166 195 223 215 222 238 259 264 261 269 268 272 275 283 287 308 290 290 319 323 324 320 322 326 332 337 339 344 350 353 352 355 356 0 0 360 358 356 352 348 344 342 342 340
248 248 256 239 244 242 210 263 239 229 239 262 263 259 257 254 265 269 272 290 310 299 284 287 297 304 312 311 310 321 318 316 328 334 341 346 355 1 357 359 2 1 0 358 352 346 338 334 334
241 255 278 247 254 232 233 230 222 238 252 279 285 265 250 255 264 275 284 292 305 301 276 277 279 288 297 295 304 305 303 304 311 323 331 339 347 348 350 353 356 356 353 354 349 348 342 339 335
273 270 295 293 255 231 227 235 254 261 260 259 277 301 274 266 269 282 290 295 303 302 278 271 275 281 289 292 296 298 296 298 303 308 316 320 328 334 341 341 341 343 341 342 343 342 340 335 332
255 289 304 18 193 198 220 273 263 266 269 275 272 287 303 276 280 291 301 307 310 305 293 282 274 280 282 284 287 285 280 289 289 290 300 302 313 320 325 329 330 331 331 333 334 333 334 334 333
263 328 340 51 158 233 317 294 285 270 269 251 249 269 280 275 283 289 301 309 314 313 302 282 275 270 275 281 284 282 283 281 279 285 286 288 299 312 316 319 321 324 326 326 328 328 327 329 332
283 305 300 310 357 327 333 295 312 312 248 227 229 231 248 260 272 279 286 299 311 314 300 294 285 275 273 280 283 283 283 277 284 298 276 286 293 304 306 313 317 319 321 321 321 323 324 326 328
252 260 295 299 314 318 286 317 329 61 208 199 202 219 261 272 259 272 281 292 301 304 305 300 291 286 274 274 276 276 275 273 275 282 282 288 298 299 302 311 313 315 316 317 319 321 321 322 324
238 255 294 314 307 304 282 274 10 87 122 175 180 190 214 225 256 269 272 278 287 296 306 309 294 282 271 270 273 274 276 279 280 288 292 291 293 293 302 305 310 314 316 316 317 319 320 320 321
240 253 320 324 229 222 319 259 171 170 167 182 203 229 246 248 240 244 260 270 279 291 301 303 300 284 278 269 266 270 269 270 278 282 284 285 290 296 302 312 316 316 316 316 318 318 317 318 318
246 246 185 195 191 317 303 252 191 231 219 235 236 226 243 228 234 223 248 264 274 286 291 297 306 303 290 275 265 265 265 262 269 274 279 288 297 302 310 313 313 312 313 315 315 315 316 317 318
218 218 219 244 270 339 254 292 162 216 223 261 259 267 209 161 154 230 253 258 269 277 286 293 302 306 303 296 275 266 262 263 259 266 275 285 293 300 305 306 307 311 312 314 314 312 313 315 316
212 196 186 192 131 203 247 268 248 186 187 224 256 258 228 233 286 308 310 291 271 277 281 288 299 298 295 295 284 272 270 269 271 274 282 286 288 295 300 304 308 310 311 312 310 311 313 313 314
221 214 191 194 192 167 217 250 166 201 198 214 240 253 276 286 307 317 316 292 270 272 263 272 271 269 273 281 289 291 288 291 292 290 287 288 289 295 301 304 307 308 308 307 309 310 310 310 310
236 244 223 205 202 224 205 233 278 210 206 220 249 248 278 295 310 315 311 295 289 265 247 229 243 258 270 279 286 290 287 295 294 295 295 289 292 297 303 305 306 306 307 307 307 310 312 313 312